Flag for U.S.A. Weather past 2 weeks in Independence, Missouri, U.S.A.

Now
57 °F

Overcast.


Feels Like: 57 °F
Forecast: 57 / 70 °F
Wind: 3 mph from Southwest

Location: Lee's Summit Municipal Airport

Current Time: Oct 23, 2014 at 7:15:37 AM

Latest Report: Oct 23, 2014 at 6:53 AM


Visibility: 10 mi

Pressure: 30.07 "Hg

Humidity: 90%

Dew point: 54 °F

Location of IndependenceLocation

Historic Weather in Independence — Graph

°F

Independence temperature yesterday

Maximum temperature yesterday: 72 °F (at 3:53 PM)
Minimum temperature yesterday: 52 °F (at 6:53 AM)
Average temperature yesterday: 60 °F

Past Weeks' High & Low Weather Summary

 TemperatureHumidityPressure
High77 °F (Oct 16, 3:53 PM)97% (Oct 9, 10:53 AM)30.25 "Hg (Oct 9, 10:53 AM)
Low42 °F (Oct 11, 7:53 AM)32% (Oct 21, 3:53 PM)29.47 "Hg (Oct 13, 2:53 PM)
Average57 °F69%29.99 "Hg
* Reported Oct 8 5:53 AM — Oct 23 5:53 AM, Independence, Weather by CustomWeather, © 2014

Note: Actual official high and low records may vary slightly from our data, if they occured in-between our weather recording intervals... More about our weather records

Advertising

Independence weather history for previous 24 hours

 ConditionsComfort  
Time TempWeatherWind HumidityBarometerVisibility
5:53 AM
Oct 23
56 °FLight rain. Mostly cloudy.3 mph90%30.11 "Hg10 mi
4:53 AM56 °FHeavy rain. Fog.8 mph87%30.11 "Hg3 mi
3:53 AM58 °FMostly cloudy.7 mph75%30.10 "Hg10 mi
2:53 AM58 °FPassing clouds.9 mph72%30.11 "Hg10 mi
1:53 AM58 °FClear.9 mph72%30.10 "Hg10 mi
12:53 AM59 °FClear.10 mph67%30.11 "Hg10 mi
11:53 PM
Oct 22
59 °FPassing clouds.6 mph67%30.11 "Hg10 mi
10:53 PM60 °FClear.7 mph65%30.11 "Hg10 mi
9:53 PM62 °FClear.9 mph60%30.12 "Hg10 mi
8:53 PM63 °FClear.8 mph63%30.12 "Hg10 mi
7:53 PM64 °FClear.7 mph63%30.11 "Hg10 mi
6:53 PM66 °FSunny.7 mph59%30.11 "Hg10 mi
5:53 PM69 °FSunny.8 mph55%30.11 "Hg10 mi
4:53 PM70 °FPartly sunny.10 mph55%30.11 "Hg10 mi
3:53 PM72 °FSunny.9 mph52%30.10 "Hg10 mi
2:53 PM71 °FSunny.10 mph53%30.11 "Hg10 mi
1:53 PM69 °FSunny.10 mph55%30.14 "Hg10 mi
12:53 PM65 °FPartly sunny.9 mph56%30.18 "Hg10 mi
11:53 AM62 °FPassing clouds.9 mph60%30.21 "Hg10 mi
10:53 AM59 °FOvercast.9 mph64%30.22 "Hg10 mi
9:53 AM56 °FMostly cloudy.8 mph70%30.21 "Hg10 mi
8:53 AM53 °FScattered clouds.8 mph74%30.22 "Hg10 mi
7:53 AM52 °FPassing clouds.7 mph77%30.20 "Hg10 mi
Weather by CustomWeather, © 2014

See weather overviewHow to use our weather pages